Wind_Speed
51 49 48 45 48 51 48 48 48 46 46 45 42 40 36 34 34 36 35 35 36 35 33 34 37 36 35 35 35 35 36 35 34 32 32 34 36 37 40 42 42 42 39 37 37 38 40 40 40
55 51 50 50 49 52 53 52 50 50 48 48 48 44 42 39 36 36 37 37 37 36 36 36 32 33 34 38 38 38 39 39 39 36 35 37 38 40 43 44 45 43 41 41 39 41 43 43 44
49 47 50 50 52 53 54 56 55 52 51 50 49 48 47 45 43 40 39 39 39 40 41 39 36 31 32 35 37 38 39 41 41 40 40 42 41 43 46 46 44 43 44 43 42 45 44 47 49
50 47 43 43 47 50 54 56 57 57 54 53 52 50 49 49 48 45 44 43 42 42 43 43 42 40 36 36 38 38 36 37 38 38 38 39 40 42 43 43 43 42 40 40 44 46 48 51 53
57 50 45 44 41 49 53 56 58 59 58 55 54 54 52 50 50 49 48 47 46 45 45 44 45 46 44 42 41 43 43 43 42 42 42 43 44 44 44 44 44 41 42 44 44 49 52 54 53
56 56 53 51 49 45 51 52 53 58 59 59 56 54 56 54 53 51 51 51 50 49 47 46 47 48 47 48 47 46 45 45 45 46 48 48 45 46 45 46 45 44 44 48 50 53 55 55 58
57 56 52 50 53 46 53 52 56 55 58 60 58 57 56 56 57 57 55 54 52 50 51 50 50 49 48 46 49 51 51 49 50 51 51 50 49 48 48 47 49 50 52 54 55 56 57 59 60
62 57 52 53 55 54 54 54 54 57 60 59 61 60 58 57 56 57 58 56 55 53 52 50 50 50 49 48 48 49 50 51 52 54 54 53 51 51 52 53 54 55 58 59 59 60 61 62 62
68 60 57 55 59 58 56 54 50 56 58 61 61 64 61 61 60 59 57 58 57 57 54 54 53 52 51 51 51 51 51 53 54 54 55 56 56 57 58 59 60 61 61 62 63 65 63 62 61
71 66 63 62 65 62 57 54 53 56 55 60 62 64 62 63 64 63 61 59 58 57 58 58 57 56 56 56 56 57 57 56 57 57 58 59 60 62 63 64 64 64 64 66 67 66 65 64 63
75 68 66 65 69 64 59 56 57 57 56 60 61 60 62 64 67 66 62 61 60 61 59 60 60 59 59 61 60 61 61 61 62 62 62 63 63 64 66 66 66 67 67 67 68 66 67 66 66
73 68 66 65 67 66 61 57 59 58 60 61 61 60 61 64 68 67 66 67 66 61 60 61 62 62 60 55 54 59 61 61 62 64 65 68 70 69 68 68 68 69 69 68 69 67 69 71 70
76 73 66 65 63 63 59 60 59 62 64 61 59 63 64 63 67 66 65 66 67 66 62 59 58 58 61 63 63 63 65 66 66 65 68 71 70 70 69 69 71 71 72 72 72 74 75 74 72
77 77 72 69 65 62 59 62 61 60 62 61 54 46 53 61 70 70 69 66 65 66 68 66 64 64 65 66 67 68 70 69 69 70 69 67 67 67 70 73 73 76 77 76 76 75 77 73 73
87 84 81 75 71 70 65 61 58 61 60 58 55 57 56 56 65 69 71 69 68 67 68 69 70 69 67 67 67 68 70 71 71 70 69 69 71 70 73 75 76 77 77 76 76 74 73 73 73
77 81 82 80 79 76 73 62 61 62 63 63 60 58 58 64 66 68 68 69 71 70 69 68 69 68 66 69 71 67 68 71 73 71 70 71 74 76 76 75 78 76 77 75 75 77 76 78 78
64 64 68 76 81 79 76 71 69 65 65 63 56 54 58 54 51 57 60 66 65 66 68 66 62 54 57 62 62 63 66 67 66 68 69 71 75 73 78 79 78 76 77 78 80 81 81 83 83
67 65 63 68 77 82 79 76 75 72 72 67 58 51 52 49 51 50 42 53 66 64 63 64 64 62 58 59 63 63 65 67 70 74 75 75 77 79 80 78 80 82 84 83 81 82 84 87 86
69 67 63 65 72 77 81 79 79 75 72 69 65 60 58 54 54 56 56 55 54 57 60 63 61 63 62 64 64 67 69 71 73 74 74 76 80 80 82 84 85 84 83 85 86 88 89 91 94
71 68 66 64 68 70 72 78 80 75 73 69 63 65 61 57 60 59 59 61 59 57 57 54 56 57 62 67 70 70 72 72 72 75 78 79 81 82 84 85 87 88 91 93 94 94 95 96 97
67 67 68 66 66 71 68 64 67 73 72 70 62 61 61 61 61 60 60 62 61 61 60 58 62 62 66 65 66 68 71 74 76 77 78 80 84 87 89 90 91 92 93 94 95 95 96 96 94
66 68 68 66 63 68 70 61 59 61 61 61 62 62 61 60 61 61 61 61 57 55 54 55 57 62 66 67 70 71 74 80 82 84 85 85 86 88 90 91 93 95 97 99 100 101 101 100 99
61 67 71 69 68 68 70 62 56 55 54 59 61 61 60 62 60 57 60 61 60 59 61 63 64 69 71 73 76 78 79 82 83 84 85 87 90 91 93 96 98 99 99 100 101 101 102 104 106
57 64 68 69 67 65 67 58 54 52 57 61 63 62 61 59 58 60 63 63 65 65 63 65 68 69 72 76 77 78 79 81 84 86 88 90 93 95 97 98 99 100 102 103 105 107 108 108 108
56 63 66 62 62 59 62 55 54 56 58 60 62 62 63 64 65 62 61 64 64 65 67 69 70 70 73 76 78 80 82 83 85 89 92 95 97 98 100 102 103 103 106 108 109 110 111 111 111
56 57 56 56 54 61 62 53 58 58 59 61 61 61 59 60 63 64 64 65 67 68 67 68 70 73 76 79 81 83 85 88 91 94 97 99 100 101 102 103 105 107 108 109 110 112 114 115 115
50 49 53 49 50 57 56 55 58 55 54 55 57 54 54 57 59 61 64 64 64 67 70 72 74 77 80 80 83 87 91 93 96 97 98 99 100 102 103 103 104 106 108 110 111 113 115 116 118
44 43 40 40 46 51 53 55 57 53 51 53 52 51 51 52 55 58 60 63 65 68 71 74 76 78 82 86 89 91 93 93 95 96 98 99 99 101 103 106 108 111 112 113 114 115 116 118 121
34 32 35 39 44 47 50 54 55 53 52 53 54 54 53 52 53 56 60 63 66 68 71 74 78 82 85 86 88 89 90 92 94 94 94 97 100 103 105 108 110 111 113 114 116 119 123 123 125
36 34 35 39 44 47 49 53 56 56 54 54 53 53 55 56 57 59 61 64 67 70 74 77 79 80 81 82 84 87 87 87 88 93 97 99 100 102 105 107 110 112 116 120 121 122 127 126 126
Wind_Direction
265 259 254 246 246 244 240 239 241 243 245 247 247 247 251 257 259 257 256 257 258 259 261 265 267 268 269 267 267 266 268 267 271 279 286 291 296 295 294 290 287 287 288 290 294 299 299 304 309
261 259 257 251 245 245 244 242 241 240 243 246 247 247 248 251 255 256 257 258 258 260 260 263 271 269 269 269 270 271 276 273 269 275 285 290 294 295 294 291 286 283 286 286 289 296 302 304 307
261 262 260 254 247 245 244 244 242 242 242 243 246 249 250 250 251 252 252 255 259 260 258 260 265 273 273 272 271 275 278 277 276 278 282 286 290 295 292 293 288 286 282 282 286 294 301 304 306
260 265 267 267 258 248 245 243 244 242 242 244 245 247 249 251 251 251 253 253 256 258 259 258 260 263 268 270 264 265 268 272 273 277 281 281 289 290 291 291 287 284 282 282 288 295 300 303 305
261 261 269 273 277 256 247 244 244 245 243 243 245 246 248 249 248 250 250 253 255 257 259 260 261 261 262 266 270 270 269 271 271 274 277 282 287 288 288 286 284 282 284 288 293 298 299 300 304
260 261 264 269 275 272 253 247 245 245 244 244 245 246 248 248 248 250 251 252 254 257 259 262 264 265 266 267 268 269 270 272 272 274 278 281 284 282 281 284 287 288 290 294 296 297 298 300 303
257 261 265 269 273 275 259 249 245 245 245 244 244 247 248 249 250 250 251 253 254 255 258 262 264 266 268 268 269 269 271 274 275 277 279 280 279 279 282 284 289 293 294 294 294 297 298 300 301
262 263 267 272 267 268 262 251 247 247 246 246 244 245 248 250 250 251 252 253 254 256 258 260 262 263 266 268 268 269 271 272 272 275 276 276 279 282 285 287 288 289 291 293 294 295 295 297 300
260 261 267 268 257 255 258 250 247 247 247 248 247 245 246 249 250 252 253 254 255 257 259 261 262 264 264 264 265 266 268 269 271 275 281 284 285 286 287 287 288 289 290 291 292 293 295 296 296
259 260 265 263 254 254 253 245 246 246 249 250 248 247 248 250 251 251 253 255 258 259 260 260 262 263 265 267 268 270 272 273 275 277 279 280 281 283 284 285 287 289 289 289 290 291 292 293 294
257 258 257 255 252 250 247 242 242 244 248 250 249 249 251 251 253 253 253 256 259 261 263 263 264 265 267 269 272 273 272 273 275 278 280 282 283 284 284 286 286 286 287 288 289 290 291 293 294
255 256 253 252 250 247 244 240 240 242 245 250 254 250 252 252 254 254 254 256 257 260 263 263 263 266 267 267 268 271 273 274 276 279 279 280 283 285 284 284 284 286 288 290 291 292 292 295 295
254 255 254 247 248 245 244 241 240 242 244 249 256 257 254 255 257 256 256 257 258 257 258 260 263 265 268 271 271 273 273 275 277 278 280 283 283 284 284 284 286 287 289 289 291 293 293 294 295
251 250 250 248 245 243 246 242 239 242 247 250 251 251 261 261 259 258 258 258 259 260 259 259 261 261 263 265 268 270 271 273 275 278 279 280 279 278 281 283 286 288 289 290 292 292 293 292 291
250 249 246 246 245 243 244 242 241 241 240 248 251 254 265 258 256 257 258 260 261 261 263 263 264 266 266 269 269 271 272 273 275 277 277 278 279 281 282 285 286 288 289 288 289 288 287 286 286
247 246 246 243 244 243 243 239 241 237 240 245 250 256 254 250 254 257 257 258 259 261 263 265 266 268 270 271 269 271 274 276 277 277 277 279 279 281 284 284 285 285 287 287 285 287 287 287 286
246 243 242 240 238 240 242 240 237 238 242 246 249 247 247 252 258 260 263 260 261 262 262 264 264 263 270 273 272 272 272 273 275 276 279 280 281 281 283 285 288 288 287 287 288 287 287 289 287
244 244 239 239 236 237 238 239 240 239 243 244 243 237 242 245 246 254 245 249 261 259 263 264 266 266 264 266 269 271 272 274 277 281 283 282 282 284 286 288 289 288 288 288 287 287 286 285 285
238 237 237 236 236 235 235 237 239 242 243 244 242 236 237 240 246 246 249 254 260 263 264 262 268 268 269 267 269 273 275 279 281 282 282 284 285 285 287 288 288 286 286 286 285 285 286 285 285
236 234 235 235 234 236 235 235 237 240 241 242 243 237 239 241 247 251 255 257 260 262 264 262 261 267 266 269 273 276 277 279 280 281 282 284 285 286 285 284 285 285 285 285 285 285 285 285 284
231 230 230 230 231 232 233 235 236 239 241 241 239 235 238 244 246 249 254 256 257 259 262 262 267 270 272 275 274 276 276 277 279 279 282 284 286 286 286 286 286 286 285 285 285 285 286 286 286
224 221 223 225 226 230 231 232 235 235 236 236 231 233 236 240 246 252 256 261 263 263 262 263 262 266 270 273 274 277 277 281 283 284 285 286 286 286 287 287 287 287 287 287 286 287 288 288 288
211 211 218 221 223 225 226 228 233 234 235 232 231 233 238 244 247 252 257 259 262 263 264 267 271 274 277 278 279 280 280 281 283 285 286 287 287 287 287 288 288 288 288 288 288 288 288 287 286
202 204 211 218 221 221 220 221 230 232 231 234 232 233 237 240 244 249 254 259 262 266 268 270 271 273 277 279 281 283 284 285 286 286 287 287 288 288 289 289 290 290 290 290 289 289 289 288 287
196 198 207 213 218 216 217 218 229 232 231 234 237 238 240 243 246 250 255 258 263 266 268 271 275 278 281 282 282 284 286 287 287 287 288 288 289 290 290 291 291 291 291 290 290 290 289 289 290
193 196 208 213 212 212 215 215 227 232 233 234 238 241 248 249 249 251 255 260 264 269 272 274 277 279 280 281 283 285 286 287 287 289 290 291 290 292 292 292 291 291 291 291 291 291 292 291 290
192 198 209 210 210 213 214 216 227 234 237 238 240 243 249 252 254 256 258 261 266 269 271 273 275 278 280 283 284 285 287 289 290 291 291 292 292 293 292 291 291 291 291 291 290 289 288 288 286
193 204 211 210 210 214 216 219 226 233 235 237 239 244 248 252 255 258 261 264 267 269 270 273 276 280 282 284 286 287 289 290 290 291 292 293 292 291 291 291 291 290 290 289 289 288 287 287 287
200 206 207 205 211 216 218 220 226 233 237 239 243 247 252 257 260 260 262 265 268 271 274 278 280 283 284 286 287 289 290 291 293 293 292 291 291 292 291 291 291 290 289 288 286 286 286 287 287
198 205 210 209 212 217 222 225 228 233 238 242 246 250 254 258 262 264 267 270 273 276 279 281 282 284 286 288 290 292 294 293 292 291 292 292 292 292 291 291 291 291 288 286 287 290 292 293 293
Height
10909 10911 10914 10916 10918 10919 10920 10921 10924 10927 10928 10930 10932 10935 10937 10937 10938 10940 10941 10941 10943 10944 10945 10945 10945 10945 10945 10945 10945 10945 10946 10946 10946 10946 10946 10945 10944 10943 10943 10941 10940 10938 10936 10935 10933 10932 10931 10931 10929
10898 10902 10905 10907 10908 10909 10913 10913 10915 10918 10920 10923 10924 10927 10930 10931 10932 10933 10934 10935 10936 10937 10938 10939 10938 10938 10939 10939 10939 10939 10939 10939 10939 10939 10939 10939 10938 10937 10936 10935 10933 10932 10930 10928 10926 10925 10924 10923 10921
10888 10891 10895 10897 10898 10899 10903 10905 10907 10909 10912 10914 10917 10919 10921 10923 10924 10925 10927 10928 10929 10930 10931 10931 10932 10932 10932 10932 10933 10933 10933 10932 10932 10932 10932 10932 10932 10930 10928 10927 10926 10925 10923 10921 10919 10917 10916 10914 10913
10878 10882 10885 10887 10887 10889 10892 10895 10898 10901 10903 10906 10909 10911 10912 10913 10915 10917 10918 10919 10920 10922 10923 10924 10925 10927 10927 10926 10927 10927 10926 10925 10925 10925 10925 10926 10925 10923 10921 10920 10919 10918 10916 10914 10911 10910 10908 10907 10905
10867 10872 10876 10876 10876 10878 10881 10886 10888 10891 10894 10896 10899 10902 10903 10905 10905 10907 10908 10909 10911 10912 10915 10916 10917 10919 10919 10920 10920 10920 10919 10918 10918 10918 10918 10918 10917 10915 10914 10912 10911 10909 10909 10907 10905 10902 10900 10898 10897
10857 10860 10866 10866 10867 10869 10871 10876 10878 10879 10883 10887 10889 10892 10894 10894 10895 10897 10898 10900 10902 10905 10906 10907 10909 10910 10911 10912 10912 10912 10911 10911 10910 10910 10910 10910 10910 10907 10906 10904 10902 10902 10901 10899 10897 10894 10891 10889 10888
10844 10849 10854 10855 10855 10860 10859 10864 10866 10870 10871 10876 10879 10881 10884 10884 10886 10887 10890 10893 10894 10896 10898 10899 10901 10902 10903 10904 10903 10902 10903 10903 10901 10901 10901 10900 10900 10898 10897 10896 10894 10893 10891 10891 10889 10886 10882 10880 10878
10828 10836 10843 10844 10843 10846 10848 10852 10855 10857 10861 10863 10868 10870 10873 10874 10874 10875 10879 10883 10886 10888 10890 10891 10892 10893 10894 10894 10894 10894 10895 10895 10893 10892 10891 10890 10889 10888 10887 10886 10885 10883 10882 10880 10878 10877 10874 10870 10867
10814 10825 10832 10830 10828 10830 10836 10842 10844 10847 10849 10852 10856 10858 10862 10863 10863 10865 10870 10873 10876 10879 10881 10882 10883 10884 10885 10884 10884 10886 10885 10884 10884 10883 10881 10880 10879 10878 10877 10876 10875 10873 10871 10868 10866 10864 10862 10860 10856
10801 10813 10818 10813 10814 10818 10825 10831 10835 10837 10838 10840 10843 10847 10852 10853 10852 10856 10860 10863 10866 10869 10870 10871 10872 10873 10874 10873 10874 10875 10875 10874 10873 10872 10871 10870 10868 10867 10866 10864 10862 10861 10858 10855 10853 10851 10849 10847 10845
10788 10799 10799 10799 10800 10807 10814 10820 10824 10826 10830 10825 10831 10841 10842 10840 10841 10846 10849 10853 10856 10858 10860 10861 10862 10863 10863 10862 10864 10864 10863 10862 10862 10861 10859 10858 10857 10855 10853 10851 10849 10846 10844 10841 10839 10837 10835 10833 10832
10771 10781 10783 10784 10787 10794 10801 10807 10813 10817 10817 10817 10822 10829 10830 10831 10830 10834 10838 10841 10844 10847 10848 10849 10851 10851 10852 10850 10853 10851 10851 10851 10850 10848 10847 10846 10844 10842 10840 10838 10835 10832 10829 10827 10824 10822 10820 10818 10816
10755 10763 10767 10770 10774 10782 10789 10795 10802 10806 10807 10809 10813 10816 10818 10822 10818 10822 10826 10829 10830 10834 10837 10838 10840 10841 10841 10839 10841 10841 10839 10839 10838 10836 10834 10832 10830 10828 10826 10823 10820 10818 10815 10812 10809 10807 10805 10802 10800
10734 10741 10750 10755 10762 10770 10777 10783 10791 10795 10798 10800 10806 10804 10806 10809 10806 10809 10813 10815 10818 10821 10824 10824 10826 10827 10828 10825 10829 10826 10823 10824 10822 10822 10821 10818 10816 10813 10811 10808 10805 10802 10799 10795 10793 10791 10788 10786 10784
10713 10722 10732 10743 10748 10756 10761 10771 10782 10784 10786 10789 10792 10794 10794 10796 10791 10796 10800 10805 10807 10808 10810 10814 10813 10814 10815 10811 10817 10813 10810 10809 10809 10809 10807 10804 10802 10798 10796 10793 10789 10786 10783 10780 10777 10775 10772 10770 10768
10688 10698 10713 10727 10729 10738 10744 10762 10764 10771 10774 10778 10782 10784 10785 10783 10782 10784 10788 10792 10794 10796 10798 10798 10798 10802 10803 10800 10800 10799 10797 10797 10795 10793 10792 10789 10786 10783 10780 10777 10773 10770 10767 10763 10760 10757 10755 10751 10747
10669 10683 10695 10701 10709 10719 10728 10743 10749 10757 10762 10766 10769 10773 10774 10774 10775 10775 10779 10780 10780 10785 10787 10785 10789 10793 10790 10786 10784 10783 10783 10782 10780 10777 10775 10772 10769 10766 10763 10760 10756 10752 10748 10745 10742 10738 10734 10730 10727
10651 10661 10671 10683 10692 10701 10713 10724 10731 10741 10748 10753 10758 10761 10763 10764 10765 10767 10772 10766 10768 10773 10776 10779 10780 10779 10777 10774 10771 10770 10769 10767 10765 10761 10758 10755 10752 10748 10745 10742 10738 10733 10730 10726 10722 10719 10716 10711 10707
10628 10641 10654 10663 10672 10683 10697 10706 10716 10725 10734 10740 10745 10747 10750 10755 10753 10756 10756 10757 10758 10761 10766 10769 10768 10765 10764 10762 10759 10757 10754 10752 10749 10744 10742 10738 10734 10730 10727 10723 10719 10714 10710 10707 10702 10698 10694 10689 10685
10611 10624 10637 10648 10658 10669 10680 10692 10700 10711 10719 10725 10731 10737 10740 10742 10744 10746 10746 10747 10751 10753 10756 10755 10756 10754 10749 10748 10747 10744 10740 10737 10732 10728 10725 10721 10717 10712 10708 10703 10699 10694 10689 10685 10680 10675 10670 10665 10661
10593 10608 10621 10634 10642 10654 10666 10678 10689 10698 10705 10713 10719 10724 10728 10729 10731 10733 10735 10736 10739 10743 10745 10746 10745 10742 10737 10735 10733 10730 10726 10722 10716 10711 10708 10705 10699 10693 10687 10682 10676 10671 10665 10660 10656 10650 10645 10640 10635
10572 10589 10604 10618 10632 10642 10654 10669 10676 10683 10692 10701 10706 10711 10715 10717 10720 10723 10725 10724 10727 10731 10733 10734 10731 10728 10725 10722 10718 10714 10709 10704 10699 10694 10691 10686 10679 10672 10665 10659 10653 10647 10641 10635 10630 10625 10618 10612 10607
10556 10574 10589 10602 10615 10626 10643 10658 10668 10676 10683 10687 10693 10698 10704 10707 10711 10714 10714 10714 10716 10719 10721 10720 10717 10713 10710 10706 10702 10697 10692 10687 10682 10677 10671 10664 10657 10650 10643 10636 10629 10623 10616 10609 10602 10595 10589 10583 10576
10545 10561 10576 10590 10601 10618 10634 10652 10659 10666 10670 10674 10681 10687 10692 10697 10700 10701 10702 10706 10705 10705 10707 10705 10702 10699 10695 10690 10684 10679 10674 10669 10663 10657 10649 10642 10635 10627 10619 10611 10603 10595 10587 10579 10572 10565 10558 10551 10544
10538 10551 10566 10582 10596 10618 10629 10645 10650 10652 10659 10664 10669 10675 10681 10685 10688 10690 10692 10693 10693 10692 10690 10689 10687 10683 10679 10673 10667 10662 10656 10650 10643 10635 10627 10619 10611 10603 10595 10586 10577 10567 10558 10549 10541 10534 10526 10520 10513
10539 10552 10567 10580 10596 10608 10619 10640 10635 10639 10647 10654 10661 10666 10670 10674 10677 10680 10681 10681 10681 10680 10677 10674 10671 10667 10662 10656 10650 10644 10636 10628 10620 10613 10605 10597 10587 10579 10569 10559 10549 10539 10530 10521 10512 10503 10494 10486 10479
10542 10556 10563 10580 10593 10604 10618 10627 10624 10632 10641 10647 10652 10658 10662 10665 10667 10669 10669 10670 10669 10666 10663 10660 10656 10651 10645 10639 10632 10623 10615 10608 10601 10592 10582 10573 10563 10552 10542 10531 10521 10512 10502 10493 10485 10474 10463 10454 10444
10545 10555 10569 10580 10590 10600 10611 10616 10618 10625 10632 10638 10643 10648 10651 10654 10655 10657 10658 10657 10655 10652 10648 10644 10640 10634 10628 10620 10612 10604 10597 10588 10578 10569 10559 10548 10537 10526 10516 10506 10495 10484 10473 10462 10452 10441 10430 10422 10412
10550 10560 10568 10577 10586 10594 10602 10608 10613 10618 10624 10630 10634 10639 10642 10644 10645 10646 10645 10643 10640 10637 10633 10629 10623 10616 10609 10601 10593 10585 10576 10566 10556 10545 10534 10523 10513 10502 10490 10478 10466 10453 10441 10429 10418 10407 10396 10387 10377
10549 10557 10565 10573 10581 10587 10594 10599 10604 10610 10616 10620 10626 10630 10632 10632 10632 10632 10631 10628 10625 10622 10618 10612 10605 10598 10591 10583 10574 10565 10556 10545 10533 10522 10512 10500 10488 10475 10462 10448 10435 10421 10407 10393 10381 10371 10357 10347 10333